This is the latest recevied weather packets stored in our database for station/object WZ9ZZZ-1. If no packets are shown the sender has not sent any weather packets the latest 10 day(s).
| Time | Temp. | Humidity | Pressure | Rain* | Wind** | Luminosity | Snow |
|---|---|---|---|---|---|---|---|
| 1777296663 | 25.56° C | 90% | 1014.6 hPa | 0 mm | - | 63 W/m² | - |
| 1777296344 | 25.56° C | 90% | 1014.4 hPa | 0 mm | - | 66 W/m² | - |
| 1777296039 | 25.56° C | 90% | 1014.3 hPa | 0 mm | - | 22 W/m² | - |
| 1777295737 | 25.56° C | 90% | 1014.5 hPa | 0 mm | - | 22 W/m² | - |
| 1777295434 | 25.56° C | 90% | 1014.3 hPa | 0 mm | - | 25 W/m² | - |
| 1777295132 | 25.56° C | 90% | 1014.4 hPa | 0 mm | - | 24 W/m² | - |
| 1777294829 | 25.56° C | 90% | 1014.1 hPa | 0 mm | - | 24 W/m² | - |
| 1777294529 | 25.56° C | 90% | 1014.2 hPa | 0 mm | - | 28 W/m² | - |
| 1777294226 | 25.56° C | 90% | 1014.2 hPa | 0 mm | - | 36 W/m² | - |
| 1777293923 | 25.56° C | 90% | 1014.1 hPa | 0 mm | - | 28 W/m² | - |
| 1777293619 | 25.56° C | 90% | 1014.1 hPa | 0 mm | - | 35 W/m² | - |
| 1777293314 | 25.56° C | 90% | 1014.1 hPa | 0 mm | - | 41 W/m² | - |
| 1777293009 | 25.56° C | 90% | 1013.8 hPa | 0 mm | - | 27 W/m² | - |
| 1777292704 | 25.56° C | 90% | 1013.7 hPa | 0 mm | - | 16 W/m² | - |
| 1777292400 | 25.56° C | 90% | 1013.7 hPa | 0 mm | - | 14 W/m² | - |
| 1777292096 | 25.56° C | 90% | 1013.7 hPa | 0 mm | - | 11 W/m² | - |
| 1777291793 | 25.56° C | 90% | 1013.6 hPa | 0 mm | - | 7 W/m² | - |
| 1777291489 | 25.56° C | 90% | 1013.5 hPa | 0 mm | - | 3 W/m² | - |
| 1777291186 | 25.56° C | 90% | 1013.5 hPa | 0 mm | - | 1 W/m² | - |
| 1777290883 | 25.56° C | 90% | 1013.4 hPa | 0 mm | - | 1 W/m² | - |
| 1777290579 | 25.56° C | 90% | 1013.2 hPa | 0 mm | - | 0 W/m² | - |
| 1777290277 | 25.56° C | 90% | 1012.9 hPa | 0 mm | - | 0 W/m² | - |
| 1777289973 | 25.56° C | 90% | 1013.1 hPa | 0 mm | - | 0 W/m² | - |
| 1777289669 | 25.56° C | 90% | 1013.1 hPa | 0 mm | - | 0 W/m² | - |
| 1777289365 | 25.56° C | 91% | 1013 hPa | 0 mm | - | 0 W/m² | - |
* Rain latest hour (hover to see other rain measurements)
** Current wind speed in m/s (hover to see current wind gust speed)